TimeEST,TemperatureF,Dew PointF,Humidity,Sea Level PressureIn,VisibilityMPH,Wind Direction,Wind SpeedMPH,Gust SpeedMPH,PrecipitationIn,Events,Conditions,WindDirDegrees,DateUTC
12:54 AM,55.9,53.1,90,30.19,8.0,NNE,15.0,23.0,N/A,,Overcast,20,2012-11-19 05:54:00
1:54 AM,55.9,53.1,90,30.17,7.0,North,18.4,26.5,N/A,,Overcast,10,2012-11-19 06:54:00
2:54 AM,55.9,52.0,87,30.17,9.0,NNE,17.3,-,N/A,,Overcast,20,2012-11-19 07:54:00
3:54 AM,54.0,51.1,90,30.15,7.0,North,19.6,27.6,N/A,,Overcast,10,2012-11-19 08:54:00
4:54 AM,55.0,51.1,86,30.15,8.0,North,19.6,29.9,N/A,,Overcast,10,2012-11-19 09:54:00
5:54 AM,54.0,50.0,86,30.16,8.0,North,18.4,26.5,N/A,,Overcast,10,2012-11-19 10:54:00
6:54 AM,54.0,50.0,86,30.16,8.0,North,21.9,28.8,N/A,,Overcast,10,2012-11-19 11:54:00
7:54 AM,55.0,51.1,86,30.16,7.0,North,21.9,34.5,N/A,,Overcast,10,2012-11-19 12:54:00
8:54 AM,55.0,51.1,86,30.16,4.0,North,19.6,27.6,N/A,,Overcast,10,2012-11-19 13:54:00
9:54 AM,55.9,51.1,84,30.15,8.0,North,18.4,-,N/A,,Overcast,360,2012-11-19 14:54:00
10:54 AM,55.9,51.1,84,30.15,7.0,North,21.9,29.9,N/A,,Overcast,10,2012-11-19 15:54:00
11:17 AM,57.2,51.8,82,30.15,8.0,NNE,21.9,29.9,N/A,,Overcast,20,2012-11-19 16:17:00
11:54 AM,57.0,51.1,81,30.13,7.0,North,21.9,27.6,N/A,,Overcast,360,2012-11-19 16:54:00
12:54 PM,57.0,52.0,83,30.11,7.0,North,17.3,-,N/A,,Overcast,10,2012-11-19 17:54:00
1:54 PM,57.9,52.0,81,30.09,7.0,North,21.9,26.5,N/A,,Overcast,10,2012-11-19 18:54:00
2:54 PM,59.0,52.0,78,30.09,8.0,North,19.6,29.9,N/A,,Overcast,10,2012-11-19 19:54:00
3:54 PM,57.0,51.1,81,30.09,8.0,North,24.2,29.9,N/A,,Overcast,360,2012-11-19 20:54:00
4:54 PM,55.9,50.0,80,30.10,8.0,North,23.0,32.2,N/A,,Overcast,360,2012-11-19 21:54:00
5:54 PM,55.0,50.0,83,30.11,10.0,North,20.7,26.5,N/A,,Overcast,10,2012-11-19 22:54:00
6:54 PM,55.0,48.9,80,30.12,10.0,North,21.9,31.1,N/A,,Overcast,10,2012-11-19 23:54:00
7:54 PM,54.0,48.9,83,30.13,10.0,North,13.8,26.5,N/A,,Overcast,10,2012-11-20 00:54:00
8:54 PM,53.1,48.9,86,30.12,10.0,North,19.6,25.3,N/A,,Overcast,10,2012-11-20 01:54:00
9:54 PM,53.1,48.0,83,30.12,9.0,North,18.4,24.2,N/A,,Overcast,360,2012-11-20 02:54:00
10:54 PM,52.0,48.0,86,30.10,8.0,North,16.1,23.0,N/A,,Overcast,360,2012-11-20 03:54:00
11:54 PM,52.0,48.0,86,30.08,6.0,NNE,15.0,21.9,N/A,,Overcast,20,2012-11-20 04:54:00